7 * 24
多渠道服务支持
NAVSTAR 82(USA 343)是美国于2023年1月18日发射的GPS导航卫星,隶属于NAVSTAR导航卫星定时测距全球定位系统。它是美国GPS组网的重要卫星,主要为全球用户提供高精度的定位、导航和定时服务,可广泛应用于交通运输、测绘勘探、应急救援等多个领域,进一步增强了GPS系统的全球服务能力与覆盖稳定性。
美国
(US)
| 数据来源 | 国际轨道数据 |
| 星历时间: | 2026-06-12T11:02:57+0800 15小时前 查看轨道信息 |
| 半长轴: | 26559.634km |
| 偏心率: | 0.0006256 |
| 轨道倾角: | 55.122° |
| 近地点辐角 | 318.084° |
| 升交点赤经 | 148.718° |
| 平近点角 | 154.793° |
| 近地点: | 20164.881km |
| 远地点: | 20198.113km |
| 周期: | 717.948分钟 |
| 每日圈数: | 2.005717 |